#timestamp,LO_Frequency,Hit,StdDev 
1628031615.2,286047004.7,N
1628031635.1,286047004.5,N
1628031636.0,286047004.5,N
1628031655.8,286047007.6,Y
1628031675.6,286047001.7,P
1628031695.5,286047001.8,N
1628031715.3,286047001.3,N
1628031735.2,286047001.5,N
1628031755.9,286047001.5,N
1628031775.7,286047001.6,N
1628031795.6,286047000.2,N
1628031815.4,286047002.3,N
1628031835.2,286047000.3,N
1628031855.1,286047002.3,N
1628031856.0,286047002.3,N
1628031875.8,286047002.6,Y
1628031895.7,286047000.6,P
1628031915.5,286047000.3,N
1628031935.3,286047000.0,N
1628031955.2,286047002.4,Y
1628031975.0,286046998.5,P
1628031975.9,286046998.5,N
1628031995.7,286046998.3,N
1628032015.6,286046998.9,N
1628032035.4,286046998.9,N
1628032055.3,286046998.3,N
1628032075.1,286046998.9,N
1628032076.0,286046998.9,N
1628032095.8,286046998.2,N
1628032115.2,286046998.1,N
1628032135.0,286046998.6,N
1628032135.9,286046998.6,N
1628032155.8,286046999.6,N
1628032175.6,286046999.1,N
1628032195.4,286046998.4,N
1628032215.3,286047000.7,N
1628032235.1,286047002.7,Y
1628032255.8,286047001.8,P
1628032275.7,286047002.8,N
1628032295.5,286046998.1,N
1628032315.4,286046999.9,N
1628032335.2,286047002.3,N
1628032355.0,286047001.7,N
1628032355.9,286047001.7,N
1628032375.8,286047002.0,N
1628032395.6,286047000.8,N
1628032415.4,286047000.8,N
1628032435.3,286047001.0,N
1628032455.1,286047000.3,N
1628032475.9,286046999.7,N
1628032495.7,286047002.3,N
1628032515.5,286047002.6,N
1628032535.4,286047000.2,N
1628032555.2,286047002.7,N
1628032575.0,286047004.3,Y
1628032575.9,286047004.3,P
1628032595.8,286047004.3,N
1628032615.6,286047004.1,N
1628032635.5,286047004.0,N
1628032655.3,286047001.3,N
1628032675.1,286047003.8,N
1628032695.9,286047003.2,N
1628032715.7,286047002.2,N
1628032735.5,286047002.4,N
1628032755.4,286047002.1,N
1628032775.2,286047001.4,N
1628032795.1,286047001.4,N
1628032796.0,286047001.4,N
1628032815.8,286047001.6,N
1628032835.6,286047002.0,N
1628032855.5,286047003.7,Y
1628032875.3,286047002.7,P
1628032895.1,286047002.8,P
1628032915.9,286047001.3,P
1628032935.7,286047004.0,Y
1628032955.6,286046999.0,P
1628032975.4,286046999.3,N
1628032995.2,286046999.3,N
1628033015.1,286046998.5,N
1628033016.0,286046998.5,N
1628033035.8,286047000.9,N
1628033055.7,286047000.6,N
1628033075.5,286047001.9,N
1628033095.3,286047002.2,N
1628033115.2,286047000.4,N
1628033135.0,286046998.2,N
1628033135.9,286046998.2,N
1628033155.7,286046999.7,N
1628033175.6,286047002.7,N
1628033195.4,286046998.2,N
1628033215.3,286046998.8,N
1628033235.1,286046996.6,N
1628033236.0,286046996.6,N
1628033255.8,286046995.2,N
1628033275.7,286046997.6,N
1628033295.5,286046997.4,N
1628033315.3,286046995.9,N
1628033335.2,286046995.4,N
1628033355.0,286046995.7,N
1628033355.9,286046995.7,N
1628033375.8,286046995.9,N
1628033395.6,286046991.8,Y
1628033415.4,286046996.3,P
1628033435.3,286046993.6,P
1628033455.1,286046992.0,P
1628033475.9,286046992.9,N
1628033495.7,286046988.5,Y
1628033515.5,286046993.8,P
1628033535.4,286046994.6,P
1628033555.2,286046992.5,P
1628033575.1,286046992.2,Y
1628033576.0,286046992.2,P
1628033595.8,286047001.0,N
1628033615.6,286047000.5,N
1628033635.5,286047001.2,N
1628033655.3,286046998.7,N
1628033675.1,286047002.4,N
1628033695.9,286047003.9,N
1628033715.7,286047004.0,N
1628033735.6,286047002.9,N
1628033755.4,286047003.6,N
1628033775.2,286047003.5,N
1628033795.1,286047004.4,N
1628033796.0,286047004.4,N
1628033815.8,286047004.2,N
1628033835.6,286047004.0,N
1628033855.5,286047003.1,N
1628033875.3,286047003.1,N
1628033895.2,286047000.0,N
1628033915.9,286046996.5,N
1628033935.7,286046997.0,N
1628033955.6,286046997.7,N
1628033975.4,286046997.1,N
1628033995.2,286046996.5,N
1628034015.1,286046997.2,N
1628034016.0,286046997.2,N
1628034035.8,286046994.9,N
1628034055.7,286046995.9,N
1628034075.5,286046996.0,N
1628034095.3,286046994.6,N
1628034115.2,286046995.9,N
1628034135.0,286046993.3,N
1628034135.9,286046993.3,N
1628034155.7,286046994.1,N
1628034175.6,286046994.5,N
1628034195.4,286046993.9,N
1628034215.3,286046993.7,N
1628034235.1,286046995.8,N
1628034236.0,286046995.8,N
1628034255.8,286046995.1,N
1628034275.7,286046993.6,N
1628034295.5,286046993.8,N
1628034315.4,286046994.9,N
1628034335.2,286046997.0,N
1628034355.0,286046996.8,N
1628034355.9,286046996.8,N
1628034375.8,286046997.1,N
1628034395.6,286046997.3,N
1628034415.4,286046996.7,N
1628034435.3,286046997.6,N
1628034455.1,286046995.6,Y
1628034475.9,286047000.8,P
1628034495.7,286046998.2,N
1628034515.5,286047001.2,N
1628034535.4,286047000.8,N
1628034555.2,286046998.2,N
1628034575.0,286047000.4,N
1628034575.9,286047000.4,N
1628034595.8,286047000.0,N
1628034615.6,286047002.6,N
1628034635.5,286047002.6,N
1628034655.3,286047004.4,N
1628034675.1,286047003.7,N
1628034695.9,286047002.9,N
1628034715.7,286047005.4,N
1628034735.5,286047005.3,N
1628034755.4,286047005.3,N
1628034775.2,286047006.8,N
1628034795.1,286047008.9,Y
1628034796.0,286047008.9,P
1628034815.8,286047006.2,N
1628034835.6,286047008.9,P
1628034855.5,286047008.9,Y
1628034875.3,286047001.3,P
1628034895.2,286047001.8,N
1628034915.9,286047002.6,N
1628034935.7,286047001.4,N
1628034955.6,286047002.0,N
1628034975.4,286047001.4,N
1628034995.2,286047004.2,N
1628035015.1,286047003.1,N
1628035016.0,286047003.1,N
1628035035.8,286047005.6,Y
1628035055.7,286047002.2,P
1628035075.5,286047001.9,P
1628035095.3,286047003.9,P
1628035115.2,286047003.8,Y
1628035135.0,286047001.0,P
1628035135.9,286047001.0,N
1628035155.8,286047000.6,N
1628035175.6,286047000.9,N
1628035195.4,286047000.2,N
